STARLINK-34036, 63945

Orbit data source: Space-Track

STARLINK-34036, 63945 is a payload satellite owned by SpaceX/Seattle (US) in LEO that was launched on Tue, 13 May 2025 UTC via an FALCON 9 launch vehicle from the Air Force Western Test Range (AFWTR). Payload-class satellites include a variety of spacecraft equipped with specific instruments for various scientific and technological missions. These include communications satellites like Starlink; space stations such as the ISS; scientific satellites like the Hubble; Earth observation satellites from companies like Planet Labs, Umbra, and HawkEye 360; GPS; miniature CubeSats for education and research; and military/defense satellites.

Loading next visibility...
Identifier
63945, 2025-098V
Orbit
LEO
Country
Flag of USUS
Related business
Manufacturer
SpaceX/Seattle
Mission
Operational Commercial Communications
Bus & Motor
STARLINK V2MO, Unknown motor
Mass
575 kg wet, ~530 kg dry
Launch date (UTC)
2025-05-13 (1 year ago)
Launch vehicle
FALCON 9
Launch site
Air Force Western Test Range (AFWTR)
Object type
Payload
Rocket body
Debris
Shape & HBR
Box + 2 Pan, 17.7 m
Radar Cross Section
36.964 m², Large (>1 m²)

Expand to show TLE details & history
Last TLE update: 1 day ago

TLE from 1 day ago
0 STARLINK-34036
1 63945U 25098V   26170.92758650  .00000350  00000-0  37072-4 0  9990
2 63945  70.0016  16.8039 0002845 266.9222  93.1611 14.98339966 61868
Epoch: 2026-06-19T22:15Z
TLE epoch observation values (Epoch: 2026-06-19T22:15:43.473Z)
Latitude
-0.00008°
Longitude
134.72319°
Altitude
574.559 km
Speed
7.574 km/s
True Right ascension
01h 07m 12s
True Declination
0° 00' 00"
Sunlit
Object was in daylight at epoch
Visualization orbit readout
Latitude
Unknown
Longitude
Unknown
Altitude
Unknown
Speed
Unknown
Apparent Right ascension
Unknown
Apparent Declination
Unknown
Sunlit
N/A
Visualization observer readout
Local Sidereal Time
10:20:23
Azimuth
Unknown
Elevation
Unknown
Doppler factor
Unknown
Orbital elements
Apogee altitude
571.95 km
Perigee altitude
567.996 km
Semi-major axis
6,948.11 km
Eccentricity
0.00028
Inclination
70.0016°
RAAN
16.8039°
Arg. of periapsis
266.9222°
True anomaly
93.19365°
Mean anomaly
93.1611°
Eccentric anomaly
93.17738°
Mean motion
3.74751 °/min
Orbital period
96.06 mins
BSTAR
0.000037072
Loading maneuver chart data...
Computing Atmospheric mass density...
Loading historical data...
Loading historical data...
Loading historical data...
Loading historical data...
Loading historical data...
Loading historical data...
Loading historical data...

Documentation

Showing up to 5 results
|